,,,PA_Meas_PMT16A,,PR_Meas_QMR101_102,,RH_Meas_QMH101,,SR_Meas_QMS101,,TA_Meas_QMH101,,GenWind,,GenWind,
date,time,status,PA,status,PR,status,RH,status,SR,status,TA,status,DirAvg,status,SpdAvg,
2009-12-20, 00:00:04,VALID,1013.75,VALID,0,VALID,49.9944,VALID,0,VALID,24.0448,VALID,325,VALID,0,
2009-12-20, 00:01:04,VALID,1013.76,VALID,0,VALID,49.9868,VALID,0,VALID,24.0661,VALID,325,VALID,0,
2009-12-20, 00:02:04,VALID,1013.75,VALID,0,VALID,49.9944,VALID,0,VALID,24.0466,VALID,325,VALID,0,
2009-12-20, 00:03:04,VALID,1013.77,VALID,0,VALID,50.0402,VALID,0,VALID,24.0466,VALID,8,VALID,0,
2009-12-20, 00:04:04,VALID,1013.78,VALID,0,VALID,50.0097,VALID,0,VALID,24.0448,VALID,8,VALID,0.00429688,
2009-12-20, 00:05:04,VALID,1013.77,VALID,0,VALID,50.0097,VALID,0,VALID,24.0448,VALID,8,VALID,0,
2009-12-20, 00:06:04,VALID,1013.73,VALID,0,VALID,50.0783,VALID,0,VALID,24.0448,VALID,8,VALID,0,
2009-12-20, 00:07:04,VALID,1013.73,VALID,0,VALID,50.1927,VALID,0,VALID,24.0643,VALID,8,VALID,0,
2009-12-20, 00:08:04,VALID,1013.74,VALID,0,VALID,50.1927,VALID,0,VALID,24.0661,VALID,8,VALID,0,
2009-12-20, 00:09:04,VALID,1013.72,VALID,0,VALID,50.2613,VALID,0,VALID,24.0253,VALID,8,VALID,0,
2009-12-20, 00:10:04,VALID,1013.7,VALID,0,VALID,50.2308,VALID,0,VALID,24.0661,VALID,8,VALID,0.00429688,
2009-12-20, 00:11:04,VALID,1013.7,VALID,0,VALID,50.1927,VALID,0.105969,VALID,24.0624,VALID,8,VALID,0,
2009-12-20, 00:12:04,VALID,1013.71,VALID,0,VALID,50.2156,VALID,0.105969,VALID,24.0429,VALID,8,VALID,0,
2009-12-20, 00:13:04,VALID,1013.68,VALID,0,VALID,50.2232,VALID,0.105969,VALID,24.0429,VALID,8,VALID,0,
2009-12-20, 00:14:05,VALID,1013.66,VALID,0,VALID,50.1317,VALID,0.105969,VALID,24.0235,VALID,8,VALID,0.275391,
2009-12-20, 00:15:05,VALID,1013.65,VALID,0,VALID,50.2232,VALID,0.105969,VALID,24.0429,VALID,8,VALID,0.0851562,
2009-12-20, 00:16:05,VALID,1013.61,VALID,0,VALID,50.1851,VALID,0.105969,VALID,24.0429,VALID,8,VALID,0.084375,
2009-12-20, 00:17:05,VALID,1013.59,VALID,0,VALID,50.0936,VALID,0.105969,VALID,24.0216,VALID,8,VALID,0,
2009-12-20, 00:18:05,VALID,1013.57,VALID,0,VALID,50.1317,VALID,0.105969,VALID,24.0624,VALID,8,VALID,0.169531,
2009-12-20, 00:19:05,VALID,1013.56,VALID,0,VALID,50.147,VALID,0.105969,VALID,24.0235,VALID,14,VALID,0.00625,
2009-12-20, 00:20:05,VALID,1013.53,VALID,0,VALID,50.1622,VALID,0.105969,VALID,24.0235,VALID,22,VALID,0.0589844,
2009-12-20, 00:21:05,VALID,1013.54,VALID,0,VALID,50.1927,VALID,0.105969,VALID,24.0235,VALID,22,VALID,0,
2009-12-20, 00:22:05,VALID,1013.51,VALID,0,VALID,50.1698,VALID,0.105969,VALID,24.0235,VALID,22,VALID,0.169141,
2009-12-20, 00:23:05,VALID,1013.5,VALID,0,VALID,50.1775,VALID,0.105969,VALID,24.0235,VALID,2,VALID,0.0785156,
2009-12-20, 00:24:05,VALID,1013.51,VALID,0,VALID,50.147,VALID,0.105969,VALID,24.004,VALID,331,VALID,0,
2009-12-20, 00:25:05,VALID,1013.5,VALID,0,VALID,50.1241,VALID,0.105969,VALID,24.0235,VALID,334,VALID,0.0476562,
2009-12-20, 00:26:05,VALID,1013.5,VALID,0,VALID,50.1698,VALID,0,VALID,24.0058,VALID,44,VALID,0.230078,
2009-12-20, 00:27:05,VALID,1013.49,VALID,0,VALID,50.1622,VALID,0,VALID,24.0253,VALID,44,VALID,0,
2009-12-20, 00:28:05,VALID,1013.48,VALID,0,VALID,50.1012,VALID,0,VALID,24.0058,VALID,11,VALID,0.127734,
2009-12-20, 00:29:05,VALID,1013.47,VALID,0,VALID,50.0707,VALID,0,VALID,24.0058,VALID,322,VALID,0.4,
2009-12-20, 00:30:05,VALID,1013.48,VALID,0,VALID,50.0859,VALID,0,VALID,24.0058,VALID,324,VALID,0.000390625,
2009-12-20, 00:31:05,VALID,1013.49,VALID,0,VALID,50.0631,VALID,0,VALID,24.0058,VALID,331,VALID,0.15,
2009-12-20, 00:32:05,VALID,1013.52,VALID,0,VALID,50.0021,VALID,0,VALID,24.0058,VALID,320,VALID,0.313672,
2009-12-20, 00:33:05,VALID,1013.53,VALID,0,VALID,50.0249,VALID,0,VALID,24.0253,VALID,301,VALID,0.382422,
2009-12-20, 00:34:05,VALID,1013.49,VALID,0,VALID,50.0478,VALID,0,VALID,24.0058,VALID,295,VALID,0,
2009-12-20, 00:35:05,VALID,1013.47,VALID,0,VALID,50.0783,VALID,0,VALID,24.0253,VALID,283,VALID,0.457031,
2009-12-20, 00:36:05,VALID,1013.43,VALID,0,VALID,50.0478,VALID,0,VALID,24.0253,VALID,285,VALID,0.391016,
2009-12-20, 00:37:05,VALID,1013.43,VALID,0,VALID,50.0554,VALID,0,VALID,24.0661,VALID,272,VALID,0.0914062,
2009-12-20, 00:38:05,VALID,1013.43,VALID,0,VALID,50.0249,VALID,0,VALID,24.0448,VALID,272,VALID,0.14375,
2009-12-20, 00:39:05,VALID,1013.42,VALID,0,VALID,50.0631,VALID,0,VALID,24.0448,VALID,280,VALID,0,
2009-12-20, 00:40:05,VALID,1013.4,VALID,0,VALID,50.0859,VALID,0,VALID,24.0448,VALID,280,VALID,0,
2009-12-20, 00:41:05,VALID,1013.42,VALID,0,VALID,50.0402,VALID,0.105969,VALID,24.0643,VALID,280,VALID,0,
2009-12-20, 00:42:05,VALID,1013.41,VALID,0,VALID,50.208,VALID,0.105969,VALID,24.0624,VALID,280,VALID,0,
2009-12-20, 00:43:05,VALID,1013.39,VALID,0,VALID,50.1698,VALID,0,VALID,24.0429,VALID,299,VALID,0,
2009-12-20, 00:44:05,VALID,1013.39,VALID,0,VALID,50.2232,VALID,0,VALID,24.0429,VALID,314,VALID,0.286719,
2009-12-20, 00:45:05,VALID,1013.37,VALID,0,VALID,50.208,VALID,0.105969,VALID,24.0235,VALID,291,VALID,0.675781,
2009-12-20, 00:46:05,VALID,1013.39,VALID,0,VALID,50.208,VALID,0.105969,VALID,24.0429,VALID,309,VALID,0.629297,
2009-12-20, 00:47:05,VALID,1013.36,VALID,0,VALID,50.2003,VALID,0.105969,VALID,24.0429,VALID,297,VALID,0.602344,
2009-12-20, 00:48:05,VALID,1013.38,VALID,0,VALID,50.2003,VALID,0.105969,VALID,24.0429,VALID,304,VALID,0.476172,
2009-12-20, 00:49:05,VALID,1013.35,VALID,0,VALID,50.2156,VALID,0.105969,VALID,24.0624,VALID,304,VALID,0.205859,
2009-12-20, 00:50:05,VALID,1013.34,VALID,0,VALID,50.2156,VALID,0.105969,VALID,24.0643,VALID,297,VALID,0.0792969,
2009-12-20, 00:51:05,VALID,1013.33,VALID,0,VALID,50.208,VALID,0.105969,VALID,24.0429,VALID,297,VALID,0.301562,
2009-12-20, 00:52:05,VALID,1013.31,VALID,0,VALID,50.2232,VALID,0.105969,VALID,24.0235,VALID,273,VALID,0.501953,
2009-12-20, 00:53:05,VALID,1013.29,VALID,0,VALID,50.2156,VALID,0.105969,VALID,24.0429,VALID,304,VALID,0.648828,
2009-12-20, 00:54:05,VALID,1013.27,VALID,0,VALID,50.1927,VALID,0.105969,VALID,24.0429,VALID,333,VALID,0.173438,
2009-12-20, 00:55:05,VALID,1013.28,VALID,0,VALID,50.2003,VALID,0.105969,VALID,24.0429,VALID,315,VALID,0.139844,
2009-12-20, 00:56:05,VALID,1013.28,VALID,0,VALID,50.1317,VALID,0,VALID,24.0235,VALID,312,VALID,0.288281,
2009-12-20, 00:57:05,VALID,1013.28,VALID,0,VALID,50.1165,VALID,0,VALID,24.0429,VALID,314,VALID,0.132422,
2009-12-20, 00:58:05,VALID,1013.25,VALID,0,VALID,50.0554,VALID,0.105969,VALID,24.0429,VALID,314,VALID,0,
2009-12-20, 00:59:05,VALID,1013.24,VALID,0,VALID,50.1241,VALID,0,VALID,24.0235,VALID,314,VALID,0,
2009-12-20, 01:00:05,VALID,1013.23,VALID,0,VALID,50.1317,VALID,0.105969,VALID,24.0643,VALID,314,VALID,0.0339844,
2009-12-20, 01:01:05,VALID,1013.22,VALID,0,VALID,50.147,VALID,0,VALID,24.0253,VALID,54,VALID,0.306641,
2009-12-20, 01:02:05,VALID,1013.2,VALID,0,VALID,50.1088,VALID,0.105969,VALID,24.004,VALID,54,VALID,0,
2009-12-20, 01:03:05,VALID,1013.18,VALID,0,VALID,50.0936,VALID,0,VALID,24.0253,VALID,44,VALID,0,
2009-12-20, 01:04:05,VALID,1013.18,VALID,0,VALID,50.0021,VALID,0.105969,VALID,24.004,VALID,331,VALID,0.414844,
2009-12-20, 01:05:05,VALID,1013.16,VALID,0,VALID,50.0631,VALID,0.105969,VALID,24.004,VALID,330,VALID,0.330859,
2009-12-20, 01:06:05,VALID,1013.15,VALID,0,VALID,50.0249,VALID,0.105969,VALID,24.0253,VALID,267,VALID,0.165625,
2009-12-20, 01:07:05,VALID,1013.13,VALID,0,VALID,50.0097,VALID,0.105969,VALID,24.0253,VALID,275,VALID,0.359375,
2009-12-20, 01:08:05,VALID,1013.11,VALID,0,VALID,50.0936,VALID,0.105969,VALID,24.004,VALID,301,VALID,0.764063,
2009-12-20, 01:09:05,VALID,1013.12,VALID,0,VALID,50.1012,VALID,0.105969,VALID,24.0253,VALID,282,VALID,0,
2009-12-20, 01:10:05,VALID,1013.1,VALID,0,VALID,50.1088,VALID,0,VALID,24.004,VALID,350,VALID,0,
2009-12-20, 01:11:05,VALID,1013.08,VALID,0,VALID,50.1088,VALID,0,VALID,24.0058,VALID,350,VALID,0,
2009-12-20, 01:12:05,VALID,1013.08,VALID,0,VALID,50.1317,VALID,0,VALID,24.0271,VALID,309,VALID,0,
2009-12-20, 01:13:05,VALID,1013.06,VALID,0,VALID,50.1088,VALID,0,VALID,23.9863,VALID,321,VALID,0,
2009-12-20, 01:14:05,VALID,1013.02,VALID,0,VALID,50.0936,VALID,0,VALID,23.9863,VALID,317,VALID,0.317187,
2009-12-20, 01:15:05,VALID,1013.02,VALID,0,VALID,50.1622,VALID,0,VALID,23.9881,VALID,313,VALID,0,
2009-12-20, 01:16:05,VALID,1013.02,VALID,0,VALID,50.2232,VALID,0,VALID,23.9668,VALID,264,VALID,0.249219,
2009-12-20, 01:17:05,VALID,1013.02,VALID,0,VALID,50.208,VALID,0,VALID,23.9881,VALID,252,VALID,0,
2009-12-20, 01:18:05,VALID,1013,VALID,0,VALID,50.2232,VALID,0,VALID,23.9668,VALID,252,VALID,0,
2009-12-20, 01:19:05,VALID,1013.01,VALID,0,VALID,50.1851,VALID,0,VALID,23.9668,VALID,70,VALID,0.303125,
2009-12-20, 01:20:05,VALID,1012.99,VALID,0,VALID,50.2003,VALID,0,VALID,23.9686,VALID,301,VALID,0.121094,
2009-12-20, 01:21:05,VALID,1012.99,VALID,0,VALID,50.208,VALID,0,VALID,23.9881,VALID,336,VALID,0.101953,
2009-12-20, 01:22:05,VALID,1013,VALID,0,VALID,50.2232,VALID,0,VALID,23.9863,VALID,294,VALID,0,
2009-12-20, 01:23:05,VALID,1012.99,VALID,0,VALID,50.2156,VALID,0,VALID,23.9863,VALID,278,VALID,0,
2009-12-20, 01:24:05,VALID,1012.99,VALID,0,VALID,50.1622,VALID,0,VALID,23.9863,VALID,278,VALID,0,
2009-12-20, 01:25:05,VALID,1012.99,VALID,0,VALID,50.1851,VALID,0,VALID,23.9863,VALID,331,VALID,0.157422,
2009-12-20, 01:26:05,VALID,1012.98,VALID,0,VALID,50.1012,VALID,0,VALID,23.9668,VALID,346,VALID,0,
2009-12-20, 01:27:05,VALID,1012.98,VALID,0,VALID,50.0631,VALID,0,VALID,23.9863,VALID,346,VALID,0,
2009-12-20, 01:28:05,VALID,1012.95,VALID,0,VALID,50.0554,VALID,0,VALID,23.9881,VALID,344,VALID,0.252734,
2009-12-20, 01:29:05,VALID,1012.96,VALID,0,VALID,50.0859,VALID,0,VALID,23.9881,VALID,343,VALID,0,
2009-12-20, 01:30:05,VALID,1012.95,VALID,0,VALID,50.1012,VALID,0,VALID,23.9881,VALID,343,VALID,0,
2009-12-20, 01:31:05,VALID,1012.91,VALID,0,VALID,50.1241,VALID,0,VALID,23.9668,VALID,343,VALID,0.185156,
2009-12-20, 01:32:05,VALID,1012.92,VALID,0,VALID,50.147,VALID,0,VALID,23.9668,VALID,343,VALID,0,
2009-12-20, 01:33:05,VALID,1012.92,VALID,0,VALID,50.1851,VALID,0,VALID,23.9473,VALID,343,VALID,0,
2009-12-20, 01:34:05,VALID,1012.94,VALID,0,VALID,50.2232,VALID,0,VALID,23.9686,VALID,343,VALID,0,
2009-12-20, 01:35:05,VALID,1012.92,VALID,0,VALID,50.208,VALID,0,VALID,23.9278,VALID,343,VALID,0,
2009-12-20, 01:36:05,VALID,1012.91,VALID,0,VALID,50.2308,VALID,0,VALID,23.9473,VALID,343,VALID,0,
2009-12-20, 01:37:05,VALID,1012.91,VALID,0,VALID,50.2156,VALID,0,VALID,23.9473,VALID,343,VALID,0,
2009-12-20, 01:38:05,VALID,1012.94,VALID,0,VALID,50.2003,VALID,0,VALID,23.9278,VALID,342,VALID,0,
2009-12-20, 01:39:05,VALID,1012.94,VALID,0,VALID,50.1927,VALID,0,VALID,23.9491,VALID,318,VALID,0,
2009-12-20, 01:40:05,VALID,1012.94,VALID,0,VALID,50.1393,VALID,0,VALID,23.9473,VALID,315,VALID,0,
2009-12-20, 01:41:05,VALID,1012.95,VALID,0,VALID,50.1698,VALID,0,VALID,23.9668,VALID,313,VALID,0,
2009-12-20, 01:42:05,VALID,1012.95,VALID,0,VALID,50.1546,VALID,0,VALID,23.9881,VALID,313,VALID,0,
2009-12-20, 01:43:05,VALID,1012.94,VALID,0,VALID,50.0707,VALID,0,VALID,23.9668,VALID,313,VALID,0,
2009-12-20, 01:44:05,VALID,1012.91,VALID,0,VALID,50.0478,VALID,0,VALID,23.9686,VALID,313,VALID,0,
2009-12-20, 01:45:05,VALID,1012.9,VALID,0,VALID,50.0097,VALID,0,VALID,23.9668,VALID,313,VALID,0,
2009-12-20, 01:46:05,VALID,1012.92,VALID,0,VALID,50.0173,VALID,0,VALID,23.9668,VALID,313,VALID,0,
2009-12-20, 01:47:05,VALID,1012.87,VALID,0,VALID,49.9868,VALID,0,VALID,23.9473,VALID,313,VALID,0,
2009-12-20, 01:48:05,VALID,1012.85,VALID,0,VALID,50.0249,VALID,0,VALID,23.9881,VALID,313,VALID,0,
2009-12-20, 01:49:05,VALID,1012.84,VALID,0,VALID,50.0554,VALID,0,VALID,23.9473,VALID,313,VALID,0,
2009-12-20, 01:50:05,VALID,1012.84,VALID,0,VALID,50.0554,VALID,0,VALID,23.9686,VALID,313,VALID,0,
2009-12-20, 01:51:05,VALID,1012.85,VALID,0,VALID,50.0707,VALID,0,VALID,23.9473,VALID,313,VALID,0,
2009-12-20, 01:52:05,VALID,1012.84,VALID,0,VALID,50.1012,VALID,0,VALID,23.9455,VALID,313,VALID,0,
2009-12-20, 01:53:05,VALID,1012.83,VALID,0,VALID,50.1165,VALID,0,VALID,23.9473,VALID,313,VALID,0,
2009-12-20, 01:54:05,VALID,1012.82,VALID,0,VALID,50.0859,VALID,0,VALID,23.9473,VALID,313,VALID,0,
2009-12-20, 01:55:05,VALID,1012.83,VALID,0,VALID,50.1317,VALID,0,VALID,23.9686,VALID,313,VALID,0,
2009-12-20, 01:56:05,VALID,1012.81,VALID,0,VALID,50.1317,VALID,0,VALID,23.9455,VALID,313,VALID,0,
2009-12-20, 01:57:05,VALID,1012.78,VALID,0,VALID,50.1393,VALID,0,VALID,23.9455,VALID,313,VALID,0,
2009-12-20, 01:58:05,VALID,1012.76,VALID,0,VALID,50.1851,VALID,0.105969,VALID,23.926,VALID,313,VALID,0,
2009-12-20, 01:59:05,VALID,1012.74,VALID,0,VALID,50.2385,VALID,0.105969,VALID,23.926,VALID,313,VALID,0,
2009-12-20, 02:00:05,VALID,1012.75,VALID,0,VALID,50.2385,VALID,0,VALID,23.9065,VALID,313,VALID,0,
2009-12-20, 02:01:05,VALID,1012.72,VALID,0,VALID,50.208,VALID,0.105969,VALID,23.9065,VALID,313,VALID,0,
2009-12-20, 02:02:05,VALID,1012.71,VALID,0,VALID,50.2003,VALID,0,VALID,23.9065,VALID,313,VALID,0,
2009-12-20, 02:03:05,VALID,1012.71,VALID,0,VALID,50.2308,VALID,0.105969,VALID,23.8871,VALID,313,VALID,0,
2009-12-20, 02:04:05,VALID,1012.71,VALID,0,VALID,50.2766,VALID,0,VALID,23.8871,VALID,313,VALID,0,
2009-12-20, 02:05:05,VALID,1012.69,VALID,0,VALID,50.2461,VALID,0.105969,VALID,23.8889,VALID,313,VALID,0,
2009-12-20, 02:06:05,VALID,1012.72,VALID,0,VALID,50.2766,VALID,0.105969,VALID,23.8676,VALID,313,VALID,0,
2009-12-20, 02:07:05,VALID,1012.69,VALID,0,VALID,50.3376,VALID,0,VALID,23.8676,VALID,313,VALID,0,
2009-12-20, 02:08:05,VALID,1012.7,VALID,0,VALID,50.3605,VALID,0,VALID,23.8481,VALID,313,VALID,0,
2009-12-20, 02:09:05,VALID,1012.72,VALID,0,VALID,50.269,VALID,0,VALID,23.8694,VALID,313,VALID,0,
2009-12-20, 02:10:05,VALID,1012.7,VALID,0,VALID,50.1775,VALID,0,VALID,23.8481,VALID,313,VALID,0,
2009-12-20, 02:11:05,VALID,1012.7,VALID,0,VALID,50.1927,VALID,0.105969,VALID,23.8481,VALID,313,VALID,0,
2009-12-20, 02:12:05,VALID,1012.71,VALID,0,VALID,50.2232,VALID,0,VALID,23.8481,VALID,313,VALID,0,
2009-12-20, 02:13:05,VALID,1012.71,VALID,0,VALID,50.3071,VALID,0.105969,VALID,23.8481,VALID,313,VALID,0,
2009-12-20, 02:14:05,VALID,1012.71,VALID,0,VALID,50.3452,VALID,0.105969,VALID,23.8481,VALID,313,VALID,0,
2009-12-20, 02:15:05,VALID,1012.71,VALID,0,VALID,50.2537,VALID,0,VALID,23.8481,VALID,170,VALID,0,
2009-12-20, 02:16:05,VALID,1012.77,VALID,0,VALID,50.1317,VALID,0.105969,VALID,23.8286,VALID,169,VALID,0,
2009-12-20, 02:17:05,VALID,1012.73,VALID,0,VALID,50.1546,VALID,0.105969,VALID,23.8676,VALID,164,VALID,0,
2009-12-20, 02:18:05,VALID,1012.74,VALID,0,VALID,50.1851,VALID,0,VALID,23.8481,VALID,164,VALID,0,
2009-12-20, 02:19:05,VALID,1012.75,VALID,0,VALID,50.391,VALID,0.105969,VALID,23.8481,VALID,164,VALID,0,
2009-12-20, 02:20:05,VALID,1012.75,VALID,0,VALID,50.2461,VALID,0.105969,VALID,23.8286,VALID,164,VALID,0,
2009-12-20, 02:21:05,VALID,1012.75,VALID,0,VALID,50.2842,VALID,0,VALID,23.8286,VALID,164,VALID,0,
2009-12-20, 02:22:05,VALID,1012.75,VALID,0,VALID,50.2995,VALID,0,VALID,23.8091,VALID,163,VALID,0,
2009-12-20, 02:23:05,VALID,1012.76,VALID,0,VALID,50.3223,VALID,0.105969,VALID,23.8091,VALID,138,VALID,0,
2009-12-20, 02:24:05,VALID,1012.72,VALID,0,VALID,50.2537,VALID,0,VALID,23.8091,VALID,138,VALID,0,
2009-12-20, 02:25:05,VALID,1012.7,VALID,0,VALID,50.3223,VALID,0.105969,VALID,23.7896,VALID,138,VALID,0,
2009-12-20, 02:26:05,VALID,1012.71,VALID,0,VALID,50.3071,VALID,0,VALID,23.8109,VALID,138,VALID,0,
2009-12-20, 02:27:05,VALID,1012.71,VALID,0,VALID,50.3071,VALID,0.105969,VALID,23.8304,VALID,138,VALID,0,
2009-12-20, 02:28:05,VALID,1012.66,VALID,0,VALID,50.2842,VALID,0.105969,VALID,23.7878,VALID,110,VALID,0,
2009-12-20, 02:29:05,VALID,1012.68,VALID,0,VALID,50.3147,VALID,0.105969,VALID,23.8091,VALID,110,VALID,0,
2009-12-20, 02:30:05,VALID,1012.68,VALID,0,VALID,50.3223,VALID,0,VALID,23.7896,VALID,110,VALID,0,
2009-12-20, 02:31:05,VALID,1012.7,VALID,0,VALID,50.3223,VALID,0,VALID,23.7896,VALID,109,VALID,0,
2009-12-20, 02:32:05,VALID,1012.69,VALID,0,VALID,50.3834,VALID,0.105969,VALID,23.7896,VALID,105,VALID,0,
2009-12-20, 02:33:05,VALID,1012.67,VALID,0,VALID,50.3834,VALID,0.105969,VALID,23.7896,VALID,95,VALID,0.376172,
2009-12-20, 02:34:05,VALID,1012.67,VALID,0,VALID,50.5511,VALID,0,VALID,23.7896,VALID,95,VALID,0.664453,
2009-12-20, 02:35:05,VALID,1012.67,VALID,0,VALID,50.5206,VALID,0.105969,VALID,23.8109,VALID,95,VALID,0.676172,
2009-12-20, 02:36:05,VALID,1012.67,VALID,0,VALID,50.4062,VALID,0,VALID,23.7896,VALID,119,VALID,0.600391,
2009-12-20, 02:37:05,VALID,1012.65,VALID,0,VALID,50.3529,VALID,0.105969,VALID,23.8091,VALID,119,VALID,0.444531,
2009-12-20, 02:38:05,VALID,1012.66,VALID,0,VALID,50.3452,VALID,0,VALID,23.8304,VALID,118,VALID,0.298828,
2009-12-20, 02:39:05,VALID,1012.63,VALID,0,VALID,50.3986,VALID,0.105969,VALID,23.8499,VALID,116,VALID,0.223438,
2009-12-20, 02:40:05,VALID,1012.64,VALID,0,VALID,50.4139,VALID,0,VALID,23.8286,VALID,106,VALID,0.329297,
2009-12-20, 02:41:05,VALID,1012.63,VALID,0,VALID,50.3681,VALID,0,VALID,23.8286,VALID,103,VALID,0.237891,
2009-12-20, 02:42:05,VALID,1012.61,VALID,0,VALID,50.3757,VALID,0,VALID,23.8304,VALID,103,VALID,0.234375,
2009-12-20, 02:43:05,VALID,1012.6,VALID,0,VALID,50.4215,VALID,0,VALID,23.8091,VALID,96,VALID,0.321484,
2009-12-20, 02:44:05,VALID,1012.62,VALID,0,VALID,50.4215,VALID,0.105969,VALID,23.8286,VALID,96,VALID,0.485547,
2009-12-20, 02:45:05,VALID,1012.58,VALID,0,VALID,50.4977,VALID,0.105969,VALID,23.8304,VALID,95,VALID,0.238672,
2009-12-20, 02:46:05,VALID,1012.58,VALID,0,VALID,50.4825,VALID,0,VALID,23.8304,VALID,89,VALID,0.283984,
2009-12-20, 02:47:05,VALID,1012.58,VALID,0,VALID,50.452,VALID,0,VALID,23.8304,VALID,89,VALID,0.200391,
2009-12-20, 02:48:05,VALID,1012.6,VALID,0,VALID,50.3834,VALID,0.105969,VALID,23.8091,VALID,89,VALID,0,
2009-12-20, 02:49:05,VALID,1012.61,VALID,0,VALID,50.391,VALID,0,VALID,23.7896,VALID,89,VALID,0,
2009-12-20, 02:50:05,VALID,1012.61,VALID,0,VALID,50.3757,VALID,0,VALID,23.8091,VALID,89,VALID,0,
2009-12-20, 02:51:05,VALID,1012.61,VALID,0,VALID,50.3605,VALID,0.105969,VALID,23.8091,VALID,89,VALID,0,
2009-12-20, 02:52:05,VALID,1012.58,VALID,0,VALID,50.3605,VALID,0,VALID,23.8304,VALID,89,VALID,0,
2009-12-20, 02:53:05,VALID,1012.58,VALID,0,VALID,50.3452,VALID,0.105969,VALID,23.8499,VALID,89,VALID,0,
2009-12-20, 02:54:05,VALID,1012.59,VALID,0,VALID,50.3376,VALID,0,VALID,23.8286,VALID,89,VALID,0,
2009-12-20, 02:55:05,VALID,1012.62,VALID,0,VALID,50.3681,VALID,0.105969,VALID,23.8286,VALID,89,VALID,0,
2009-12-20, 02:56:05,VALID,1012.61,VALID,0,VALID,50.3605,VALID,0,VALID,23.8499,VALID,89,VALID,0,
2009-12-20, 02:57:05,VALID,1012.59,VALID,0,VALID,50.3757,VALID,0,VALID,23.8481,VALID,89,VALID,0,
2009-12-20, 02:58:05,VALID,1012.59,VALID,0,VALID,50.3681,VALID,0,VALID,23.8481,VALID,89,VALID,0,
2009-12-20, 02:59:04,VALID,1012.57,VALID,0,VALID,50.3681,VALID,0,VALID,23.8481,VALID,89,VALID,0,
2009-12-20, 03:00:04,VALID,1012.61,VALID,0,VALID,50.4139,VALID,0.105969,VALID,23.8499,VALID,89,VALID,0,
2009-12-20, 03:01:04,VALID,1012.59,VALID,0,VALID,50.4444,VALID,0,VALID,23.8499,VALID,89,VALID,0,
2009-12-20, 03:02:04,VALID,1012.61,VALID,0,VALID,50.4062,VALID,0,VALID,23.8304,VALID,89,VALID,0,
2009-12-20, 03:03:04,VALID,1012.62,VALID,0,VALID,50.391,VALID,0,VALID,23.8304,VALID,89,VALID,0,
2009-12-20, 03:04:04,VALID,1012.61,VALID,0,VALID,50.3605,VALID,0,VALID,23.8091,VALID,89,VALID,0,
2009-12-20, 03:05:04,VALID,1012.63,VALID,0,VALID,50.3757,VALID,0.105969,VALID,23.8286,VALID,89,VALID,0,
2009-12-20, 03:06:04,VALID,1012.64,VALID,0,VALID,50.391,VALID,0.105969,VALID,23.8304,VALID,89,VALID,0,
2009-12-20, 03:07:04,VALID,1012.63,VALID,0,VALID,50.3529,VALID,0,VALID,23.8286,VALID,89,VALID,0,
2009-12-20, 03:08:04,VALID,1012.6,VALID,0,VALID,50.3834,VALID,0.105969,VALID,23.8304,VALID,89,VALID,0,
2009-12-20, 03:09:04,VALID,1012.62,VALID,0,VALID,50.391,VALID,0,VALID,23.8304,VALID,89,VALID,0,
2009-12-20, 03:10:04,VALID,1012.65,VALID,0,VALID,50.3376,VALID,0,VALID,23.8304,VALID,89,VALID,0,
2009-12-20, 03:11:04,VALID,1012.68,VALID,0,VALID,50.3605,VALID,0,VALID,23.8109,VALID,89,VALID,0,
2009-12-20, 03:12:04,VALID,1012.69,VALID,0,VALID,50.391,VALID,0,VALID,23.8127,VALID,89,VALID,0,
2009-12-20, 03:13:04,VALID,1012.64,VALID,0,VALID,50.4062,VALID,0,VALID,23.8127,VALID,89,VALID,0,
2009-12-20, 03:14:04,VALID,1012.65,VALID,0,VALID,50.3681,VALID,0,VALID,23.8127,VALID,89,VALID,0,
2009-12-20, 03:15:04,VALID,1012.65,VALID,0,VALID,50.3834,VALID,0,VALID,23.8109,VALID,89,VALID,0,
2009-12-20, 03:16:04,VALID,1012.63,VALID,0,VALID,50.3605,VALID,0,VALID,23.7914,VALID,89,VALID,0,
2009-12-20, 03:17:04,VALID,1012.65,VALID,0,VALID,50.3605,VALID,0,VALID,23.8127,VALID,89,VALID,0,
2009-12-20, 03:18:04,VALID,1012.64,VALID,0,VALID,50.3757,VALID,0,VALID,23.7914,VALID,89,VALID,0,
2009-12-20, 03:19:04,VALID,1012.63,VALID,0,VALID,50.3986,VALID,0,VALID,23.8127,VALID,89,VALID,0,
2009-12-20, 03:20:04,VALID,1012.66,VALID,0,VALID,50.3147,VALID,0,VALID,23.8127,VALID,89,VALID,0,
2009-12-20, 03:21:04,VALID,1012.66,VALID,0,VALID,50.2461,VALID,0,VALID,23.8109,VALID,89,VALID,0,
2009-12-20, 03:22:04,VALID,1012.64,VALID,0,VALID,50.2461,VALID,0,VALID,23.8109,VALID,89,VALID,0,
2009-12-20, 03:23:04,VALID,1012.65,VALID,0,VALID,50.1851,VALID,0,VALID,23.8127,VALID,89,VALID,0,
2009-12-20, 03:24:04,VALID,1012.65,VALID,0,VALID,50.269,VALID,0,VALID,23.8322,VALID,89,VALID,0,
2009-12-20, 03:25:04,VALID,1012.68,VALID,0,VALID,50.2461,VALID,0,VALID,23.8127,VALID,89,VALID,0.128906,
2009-12-20, 03:26:04,VALID,1012.68,VALID,0,VALID,50.2842,VALID,0,VALID,23.7896,VALID,89,VALID,0.370313,
2009-12-20, 03:27:04,VALID,1012.68,VALID,0,VALID,50.3071,VALID,0,VALID,23.7896,VALID,89,VALID,0.424219,
2009-12-20, 03:28:04,VALID,1012.66,VALID,0,VALID,50.2995,VALID,0.105969,VALID,23.8091,VALID,83,VALID,0.466797,
2009-12-20, 03:29:04,VALID,1012.7,VALID,0,VALID,50.2537,VALID,0.105969,VALID,23.8091,VALID,68,VALID,0.513672,
2009-12-20, 03:30:04,VALID,1012.69,VALID,0,VALID,50.269,VALID,0,VALID,23.8109,VALID,52,VALID,0.498828,
2009-12-20, 03:31:04,VALID,1012.69,VALID,0,VALID,50.2613,VALID,0,VALID,23.7896,VALID,50,VALID,0.662891,
2009-12-20, 03:32:04,VALID,1012.69,VALID,0,VALID,50.2918,VALID,0.105969,VALID,23.7896,VALID,56,VALID,0.196484,
2009-12-20, 03:33:04,VALID,1012.67,VALID,0,VALID,50.269,VALID,0,VALID,23.7896,VALID,56,VALID,0,
2009-12-20, 03:34:04,VALID,1012.71,VALID,0,VALID,50.2461,VALID,0,VALID,23.8109,VALID,76,VALID,0.2875,
2009-12-20, 03:35:04,VALID,1012.68,VALID,0,VALID,50.2461,VALID,0.105969,VALID,23.7914,VALID,76,VALID,0,
2009-12-20, 03:36:04,VALID,1012.68,VALID,0,VALID,50.2385,VALID,0,VALID,23.7896,VALID,76,VALID,0,
2009-12-20, 03:37:04,VALID,1012.69,VALID,0,VALID,50.269,VALID,0.105969,VALID,23.7701,VALID,76,VALID,0,
2009-12-20, 03:38:04,VALID,1012.71,VALID,0,VALID,50.269,VALID,0.105969,VALID,23.7701,VALID,76,VALID,0,
2009-12-20, 03:39:04,VALID,1012.72,VALID,0,VALID,50.2918,VALID,0,VALID,23.7701,VALID,76,VALID,0,
2009-12-20, 03:40:04,VALID,1012.72,VALID,0,VALID,50.2766,VALID,0.105969,VALID,23.772,VALID,18,VALID,0,
2009-12-20, 03:41:04,VALID,1012.73,VALID,0,VALID,50.3223,VALID,0,VALID,23.7738,VALID,8,VALID,0,
2009-12-20, 03:42:04,VALID,1012.75,VALID,0,VALID,50.3376,VALID,0,VALID,23.7738,VALID,8,VALID,0,
2009-12-20, 03:43:04,VALID,1012.73,VALID,0,VALID,50.3071,VALID,0,VALID,23.733,VALID,8,VALID,0,
2009-12-20, 03:44:04,VALID,1012.77,VALID,0,VALID,50.3071,VALID,0,VALID,23.7543,VALID,8,VALID,0,
2009-12-20, 03:45:04,VALID,1012.77,VALID,0,VALID,50.3376,VALID,0,VALID,23.733,VALID,8,VALID,0,
2009-12-20, 03:46:04,VALID,1012.77,VALID,0,VALID,50.3071,VALID,0,VALID,23.7348,VALID,45,VALID,0.432813,
2009-12-20, 03:47:04,VALID,1012.79,VALID,0,VALID,50.2918,VALID,0,VALID,23.7135,VALID,38,VALID,0,
2009-12-20, 03:48:04,VALID,1012.78,VALID,0,VALID,50.2918,VALID,0,VALID,23.7135,VALID,38,VALID,0.0910156,
2009-12-20, 03:49:04,VALID,1012.79,VALID,0,VALID,50.2918,VALID,0,VALID,23.7348,VALID,38,VALID,0,
2009-12-20, 03:50:04,VALID,1012.79,VALID,0,VALID,50.33,VALID,0,VALID,23.7348,VALID,63,VALID,0.285547,